Location: Artiguedieu
(43.5000°N, 0.5454°E)
Time: 08:52:14
(UTC+00:00)

Vanguard 1 Rocket - Pass Details

Date: 31 July 2021
Orbit: 650 x 4226 km, 34.3° (Epoch: 24 September)

Event Time Altitude Azimuth Distance (km) Brightness Sun altitude
Rises 15:25:32 0° 273° (W) 5,199 12.1 40.8°
Reaches altitude 10° 15:30:26 10° 261° (W) 3,570 11.6 40.0°
Maximum altitude 15:36:24 22° 214° (SW) 2,099 10.2 38.9°
Drops below altitude 10° 15:40:35 10° 164° (SSE) 2,402 9.6 38.2°
Sets 15:43:08 0° 147° (SSE) 3,127 10.0 37.7°
